#timestamp,LO_Frequency,Hit,StdDev 
1456372815.6,286047001.1,N
1456372835.4,286046999.3,N
1456372855.3,286046997.3,N
1456372875.1,286046998.7,N
1456372876.0,286046998.7,N
1456372895.8,286046993.4,N
1456372915.7,286046995.3,N
1456372935.5,286046995.8,N
1456372955.3,286046994.4,N
1456372975.2,286046996.2,N
1456372995.9,286046993.3,N
1456373015.7,286046995.0,N
1456373035.5,286046995.0,N
1456373055.4,286046995.8,N
1456373075.2,286046997.7,N
1456373095.0,286046998.3,N
1456373095.9,286046998.3,N
1456373115.8,286046996.9,N
1456373135.6,286047001.0,N
1456373155.4,286047002.5,N
1456373175.3,286047000.4,N
1456373195.1,286046999.6,N
1456373215.8,286046994.9,N
1456373235.7,286046996.2,N
1456373255.5,286046992.7,N
1456373275.3,286046992.2,N
1456373295.2,286046993.1,N
1456373315.9,286046993.2,N
1456373335.7,286046992.4,N
1456373355.6,286046990.2,Y
1456373375.4,286046990.2,P
1456373395.2,286046991.8,N
1456373415.1,286046992.3,N
1456373416.0,286046992.3,Y
1456373435.8,286046999.2,P
1456373455.6,286046996.6,N
1456373475.5,286046999.3,N
1456373495.3,286046997.8,N
1456373515.1,286046999.4,N
1456373535.9,286046999.6,N
1456373555.7,286046995.3,N
1456373575.5,286046999.2,N
1456373595.3,286046997.3,N
1456373615.2,286046995.1,N
1456373635.0,286046996.4,N
1456373635.9,286046996.4,N
1456373655.7,286046994.9,N
1456373675.6,286046997.3,N
1456373695.4,286046995.7,N
1456373715.2,286046998.9,N
1456373735.1,286046996.6,N
1456373736.0,286046996.6,N
1456373755.8,286046997.3,N
1456373775.6,286046993.8,Y
1456373795.5,286046995.8,P
1456373815.3,286046993.4,P
1456373835.1,286046995.2,P
1456373855.9,286046997.2,N
1456373875.7,286046997.0,N
1456373895.5,286047000.8,N
1456373915.4,286046999.1,N
1456373935.2,286047000.8,N
1456373955.0,286046998.3,N
1456373955.9,286046998.3,N
1456373975.8,286046997.8,N
1456373995.6,286046997.0,N
1456374015.4,286046999.0,N
1456374035.2,286046997.2,N
1456374055.1,286046996.2,N
1456374056.0,286046996.2,N
1456374075.8,286046996.7,N
1456374095.6,286046996.4,N
1456374115.5,286046994.9,N
1456374135.3,286046995.4,N
1456374155.1,286046996.7,N
1456374175.9,286046995.9,N
1456374195.7,286046993.4,Y
1456374215.5,286046995.8,P
1456374235.4,286046995.1,P
1456374255.2,286046994.9,P
1456374275.0,286046997.4,Y
1456374275.9,286046997.4,P
1456374295.8,286047001.5,N
1456374315.6,286046999.5,N
1456374335.4,286046999.9,N
1456374355.3,286047001.7,N
1456374375.1,286046999.8,N
1456374376.0,286046999.8,N
1456374395.8,286046996.7,N
1456374415.7,286046998.6,N
1456374435.5,286047000.1,N
1456374455.3,286047000.4,N
1456374475.2,286046998.3,N
1456374495.9,286047003.4,N
1456374515.7,286047001.8,N
1456374535.5,286047003.9,N
1456374555.4,286047003.2,N
1456374575.2,286047004.8,N
1456374595.0,286047006.0,N
1456374595.9,286047006.0,N
1456374615.8,286047003.8,N
1456374635.6,286047003.8,N
1456374655.4,286047004.3,N
1456374675.3,286047001.9,N
1456374695.1,286047002.7,N
1456374715.8,286046998.3,N
1456374735.7,286046997.7,N
1456374755.5,286046997.1,N
1456374775.3,286046998.4,N
1456374795.2,286046998.6,N
1456374815.9,286046996.9,N
1456374835.7,286046996.4,N
1456374855.6,286046999.5,N
1456374875.4,286046997.0,N
1456374895.2,286046996.9,N
1456374915.0,286046997.1,N
1456374915.9,286046997.1,N
1456374935.8,286046997.0,N
1456374955.6,286046997.1,N
1456374975.4,286046996.9,N
1456374995.3,286047000.5,N
1456375015.1,286047000.5,N
1456375035.8,286047000.6,N
1456375055.7,286047004.2,N
1456375075.5,286047004.0,N
1456375095.3,286047003.7,N
1456375115.2,286047007.0,N
1456375135.9,286047011.1,Y
1456375155.7,286047011.0,P
1456375175.6,286047013.8,N
1456375195.4,286047015.6,N
1456375215.2,286047017.0,N
1456375235.1,286047017.0,N
1456375236.0,286047017.0,N
1456375255.8,286047019.4,Y
1456375275.6,286047006.6,P
1456375295.5,286047008.4,N
1456375315.3,286047008.2,N
1456375335.1,286047009.8,Y
1456375355.9,286047001.3,P
1456375375.7,286047003.3,N
1456375395.5,286047008.3,N
1456375415.4,286047012.0,Y
1456375435.2,286047005.0,P
1456375455.0,286047008.8,P
1456375455.9,286047008.8,P
1456375475.8,286047013.8,Y
1456375495.6,286047004.8,P
1456375515.4,286047006.0,P
1456375535.3,286047000.8,N
1456375555.1,286046994.9,N
1456375556.0,286046994.9,N
1456375575.8,286046997.1,N
1456375595.7,286046995.4,N
1456375615.5,286046995.2,N
1456375635.3,286046994.1,N
1456375655.2,286046991.8,N
1456375675.9,286046996.2,N
1456375695.7,286046995.1,N
1456375715.5,286046999.2,N
1456375735.4,286046998.5,N
1456375755.2,286046997.9,N
1456375775.0,286046997.7,N
1456375775.9,286046997.7,N
1456375795.8,286046998.5,N
1456375815.6,286046999.1,N
1456375835.4,286046998.6,N
1456375855.3,286046998.8,N
1456375875.1,286046998.4,N
1456375876.0,286046998.4,N
1456375895.8,286047002.2,N
1456375915.7,286046998.7,N
1456375935.5,286046995.5,N
1456375955.3,286046998.7,N
1456375975.2,286046996.8,N
1456375995.9,286046995.0,N
1456376015.7,286046997.8,N
1456376035.5,286046995.5,N
1456376055.4,286046993.7,N
1456376075.2,286046996.2,N
1456376095.0,286046995.4,N
1456376095.9,286046995.4,N
1456376115.8,286047002.5,N
1456376135.6,286047000.8,N
1456376155.4,286047001.0,N
1456376175.3,286047004.4,N
1456376195.1,286046998.6,N
1456376215.8,286047001.2,N
1456376235.7,286046999.5,N
1456376255.5,286046997.1,N
1456376275.3,286046999.4,N
1456376295.2,286047001.2,N
1456376315.9,286046998.3,N
1456376335.7,286046999.9,N
1456376355.6,286046998.7,N
1456376375.4,286046996.5,N
1456376395.2,286046993.4,N
